Time,TemperatureF,DewpointF,PressureIn,WindDirection,WindDirectionDegrees,WindSpeedMPH,WindSpeedGustMPH,Humidity,HourlyPrecipIn,Conditions,Clouds,dailyrainin,SoftwareType,DateUTC
2013-09-19 00:11:00,60.0,39.0,-100.00,WNW,298,7.0,12.0,45,-99.99,,,-99.99,,2013-09-19 07:11:00,
2013-09-19 01:11:00,58.0,40.0,-100.00,WNW,287,7.0,8.0,51,-99.99,,,-99.99,,2013-09-19 08:11:00,
2013-09-19 02:11:00,55.0,39.0,-100.00,West,278,5.0,6.0,54,-99.99,,,-99.99,,2013-09-19 09:11:00,
2013-09-19 03:12:00,52.0,39.0,-100.00,South,190,5.0,8.0,61,-99.99,,,-99.99,,2013-09-19 10:12:00,
2013-09-19 04:12:00,51.0,38.0,-100.00,SE,146,3.0,6.0,60,-99.99,,,-99.99,,2013-09-19 11:12:00,
2013-09-19 05:11:00,50.0,39.0,-100.00,WSW,258,3.0,5.0,65,-99.99,,,-99.99,,2013-09-19 12:11:00,
2013-09-19 06:11:00,49.0,39.0,-100.00,South,171,3.0,3.0,68,-99.99,,,-99.99,,2013-09-19 13:11:00,
2013-09-19 08:11:00,50.0,40.0,-100.00,SE,142,2.0,3.0,68,-99.99,,,-99.99,,2013-09-19 15:11:00,
2013-09-19 09:13:00,53.0,43.0,-100.00,NNW,330,3.0,6.0,68,-99.99,,,-99.99,,2013-09-19 16:13:00,
2013-09-19 11:11:00,62.0,43.0,-100.00,North,4,6.0,8.0,49,-99.99,,,-99.99,,2013-09-19 18:11:00,
2013-09-19 12:12:00,66.0,43.0,-100.00,NNE,24,3.0,7.0,43,-99.99,,,-99.99,,2013-09-19 19:12:00,
2013-09-19 13:12:00,71.0,41.0,-100.00,NNE,29,3.0,9.0,33,-99.99,,,-99.99,,2013-09-19 20:12:00,
2013-09-19 14:11:00,72.0,40.0,-100.00,East,92,6.0,13.0,31,-99.99,,,-99.99,,2013-09-19 21:11:00,
2013-09-19 15:14:00,75.0,40.0,-100.00,East,83,6.0,12.0,28,-99.99,,,-99.99,,2013-09-19 22:14:00,
2013-09-19 16:12:00,76.0,39.0,-100.00,NNE,33,6.0,12.0,26,-99.99,,,-99.99,,2013-09-19 23:12:00,
2013-09-19 17:12:00,76.0,36.0,-100.00,NE,54,5.0,9.0,23,-99.99,,,-99.99,,2013-09-20 00:12:00,
2013-09-19 18:12:00,77.0,37.0,-100.00,East,83,6.0,10.0,23,-99.99,,,-99.99,,2013-09-20 01:12:00,
2013-09-19 19:12:00,77.0,37.0,-100.00,NNE,30,5.0,10.0,23,-99.99,,,-99.99,,2013-09-20 02:12:00,
2013-09-19 20:12:00,72.0,38.0,-100.00,North,350,5.0,6.0,28,-99.99,,,-99.99,,2013-09-20 03:12:00,
2013-09-19 21:14:00,67.0,43.0,-100.00,WNW,302,9.0,12.0,41,-99.99,,,-99.99,,2013-09-20 04:14:00,
2013-09-19 22:13:00,65.0,43.0,-100.00,WNW,296,9.0,12.0,44,-99.99,,,-99.99,,2013-09-20 05:13:00,
2013-09-19 23:12:00,64.0,41.0,-100.00,WNW,292,10.0,12.0,42,-99.99,,,-99.99,,2013-09-20 06:12:00,